Weather History for KVWU - August, 2013

Change the Weather History Date:

Sunday, August 25, 2013

  Actual Average (KBDE) Record (KBDE)
Temperature  
Mean Temperature 79 °F -  
Max Temperature 89 °F 78 °F - (-1)
Min Temperature 69 °F 54 °F - (-1)
Cooling Degree Days 14    
Growing Degree Days 29 (Base 50)    
Moisture  
Dew Point 72 °F    
Average Humidity 81    
Maximum Humidity 100    
Minimum Humidity 52    
Precipitation  
Precipitation 0.00 in - - ()
Sea Level Pressure  
Sea Level Pressure 29.89 in    
Wind  
Wind Speed 4 mph (SW)    
Max Wind Speed 10 mph    
Max Gust Speed 31 mph    
Visibility 9 miles    
Events Rain , Thunderstorm    
Averages and records for this station are not official NWS values.
T = Trace of Precipitation, MM = Missing Value Source: NWS Daily Summary

Daily Weather History Graph

Daily Weather History Graph

Search for Another Location

Airport or City:

Trip Planner

Search our weather history database for the weather conditions in past years. The results will help you decide how hot, cold, wet, or windy it might be!

Date:

Astronomy

Aug. 25, 2013 Rise Set
Actual Time 6:26 AM CDT 8:12 PM CDT
Civil Twilight 5:53 AM CDT 8:45 PM CDT
Nautical Twilight 5:13 AM CDT 9:25 PM CDT
Astronomical Twilight 4:28 AM CDT 10:09 PM CDT
Moon 10:14 PM CDT (8/25) 11:57 AM CDT (8/25)
Length of Visible Light 14h 51m
Length of Day
13h 45m
Waning Gibbous, 75% of the Moon is Illuminated
Aug 25
Waning Gibbous
Aug 28
Last Quarter
Sep 5
New
Sep 12
First Quarter
Sep 19
Full

Hourly Weather History & Observations

Time (CDT) Temp. Heat Index Dew Point Humidity Pressure Visibility Wind Dir Wind Speed Gust Speed Precip Events Conditions
12:07 AM 73.4 °F - 69.8 °F 88% 29.81 in 10.0 mi Calm Calm - N/A   Scattered Clouds
12:27 AM 75.2 °F - 69.8 °F 83% 29.85 in 7.0 mi WSW 10.4 mph - 0.01 in Thunderstorm Thunderstorm
12:47 AM 73.4 °F - 69.8 °F 88% 29.81 in 3.0 mi SSW 9.2 mph 31.1 mph 0.44 in Rain , Thunderstorm Heavy Thunderstorms and Rain
1:07 AM 73.4 °F - 69.8 °F 88% 29.81 in 10.0 mi South 5.8 mph - N/A Rain , Thunderstorm Light Thunderstorms and Rain
1:27 AM 73.4 °F - 71.6 °F 94% 29.82 in 10.0 mi South 3.5 mph - N/A Thunderstorm Thunderstorm
1:47 AM 73.4 °F - 71.6 °F 94% 29.83 in 10.0 mi West 5.8 mph - N/A   Mostly Cloudy
2:07 AM 75.2 °F - 71.6 °F 89% 29.83 in 10.0 mi Calm Calm - N/A   Mostly Cloudy
2:27 AM 73.4 °F - 71.6 °F 94% 29.83 in 7.0 mi Calm Calm - N/A   Mostly Cloudy
2:47 AM 73.4 °F - 71.6 °F 94% 29.84 in 4.0 mi Calm Calm - N/A   Overcast
3:07 AM 73.4 °F - 71.6 °F 94% 29.83 in 2.0 mi Calm Calm - N/A   Mostly Cloudy
3:27 AM 73.4 °F - 71.6 °F 94% 29.83 in 7.0 mi SE 3.5 mph - N/A   Scattered Clouds
3:47 AM 71.6 °F - 71.6 °F 100% 29.83 in 5.0 mi SE 3.5 mph - N/A   Clear
4:07 AM 73.4 °F - 71.6 °F 94% 29.83 in 7.0 mi SE 3.5 mph - N/A   Clear
4:27 AM 71.6 °F - 69.8 °F 94% 29.81 in 5.0 mi Calm Calm - N/A   Clear
4:47 AM 71.6 °F - 71.6 °F 100% 29.83 in 7.0 mi Calm Calm - N/A   Clear
5:07 AM 73.4 °F - 71.6 °F 94% 29.84 in 7.0 mi South 3.5 mph - N/A   Clear
5:27 AM 73.4 °F - 71.6 °F 94% 29.84 in 7.0 mi South 3.5 mph - N/A   Clear
5:47 AM 73.4 °F - 71.6 °F 94% 29.83 in 7.0 mi SSW 3.5 mph - N/A   Clear
6:07 AM 73.4 °F - 73.4 °F 100% 29.83 in 10.0 mi SSW 3.5 mph - N/A   Clear
6:27 AM 73.4 °F - 71.6 °F 94% 29.84 in 5.0 mi Calm Calm - N/A   Clear
6:47 AM 73.4 °F - 71.6 °F 94% 29.85 in 5.0 mi Calm Calm - N/A   Clear
7:07 AM 73.4 °F - 73.4 °F 100% 29.88 in 7.0 mi SSW 4.6 mph - N/A   Clear
7:27 AM 75.2 °F - 73.4 °F 94% 29.88 in 10.0 mi SW 6.9 mph - N/A   Clear
7:47 AM 75.2 °F - 73.4 °F 94% 29.88 in 7.0 mi SSW 5.8 mph - N/A   Clear
8:07 AM 75.2 °F - 75.2 °F 100% 29.88 in 10.0 mi SW 6.9 mph - N/A   Clear
8:27 AM 77.0 °F - 75.2 °F 94% 29.88 in 10.0 mi SW 6.9 mph - N/A   Clear
8:47 AM 77.0 °F - 75.2 °F 94% 29.88 in 10.0 mi SW 6.9 mph - N/A   Clear
9:07 AM 77.0 °F - 75.2 °F 94% 29.89 in 10.0 mi SW 6.9 mph - N/A   Clear
9:27 AM 78.8 °F - 75.2 °F 89% 29.89 in 10.0 mi SW 9.2 mph - N/A   Clear
9:47 AM 78.8 °F - 75.2 °F 89% 29.89 in 10.0 mi WSW 6.9 mph - N/A   Clear
10:07 AM 80.6 °F 85.4 °F 73.4 °F 79% 29.90 in 10.0 mi WSW 5.8 mph - N/A   Clear
10:27 AM 80.6 °F 85.4 °F 73.4 °F 79% 29.91 in 10.0 mi WSW 5.8 mph - N/A   Clear
10:47 AM 80.6 °F 85.4 °F 73.4 °F 79% 29.91 in 10.0 mi West 5.8 mph - N/A   Clear
11:07 AM 82.4 °F 88.2 °F 73.4 °F 74% 29.91 in 10.0 mi WSW 6.9 mph - N/A   Clear
11:27 AM 82.4 °F 87.2 °F 71.6 °F 70% 29.92 in 10.0 mi WSW 6.9 mph - N/A   Clear
11:47 AM 82.4 °F 87.2 °F 71.6 °F 70% 29.91 in 10.0 mi SW 8.1 mph - N/A   Clear
12:07 PM 84.2 °F 89.6 °F 71.6 °F 66% 29.91 in 10.0 mi WSW 8.1 mph - N/A   Clear
12:27 PM 84.2 °F 89.6 °F 71.6 °F 66% 29.92 in 10.0 mi SW 6.9 mph - N/A   Clear
12:47 PM 86.0 °F 91.8 °F 71.6 °F 62% 29.92 in 10.0 mi SW 5.8 mph - N/A   Clear
1:07 PM 87.8 °F 93.8 °F 71.6 °F 58% 29.92 in 10.0 mi SSW 6.9 mph - N/A   Clear
1:27 PM 87.8 °F 93.8 °F 71.6 °F 58% 29.91 in 10.0 mi WSW 5.8 mph - N/A   Clear
1:47 PM 87.8 °F 93.8 °F 71.6 °F 58% 29.92 in 10.0 mi SW 6.9 mph - N/A   Clear
2:07 PM 89.6 °F 96.2 °F 71.6 °F 55% 29.91 in 10.0 mi SW 5.8 mph - N/A   Clear
2:27 PM 87.8 °F 92.6 °F 69.8 °F 55% 29.91 in 10.0 mi WSW 8.1 mph - N/A   Clear
2:47 PM 87.8 °F 93.8 °F 71.6 °F 58% 29.91 in 10.0 mi WSW 8.1 mph - N/A   Clear
3:07 PM 87.8 °F 93.8 °F 71.6 °F 58% 29.91 in 10.0 mi WSW 5.8 mph - N/A   Clear
3:27 PM 89.6 °F 94.7 °F 69.8 °F 52% 29.91 in 10.0 mi SW 3.5 mph - N/A   Clear
3:47 PM 87.8 °F 93.8 °F 71.6 °F 58% 29.91 in 10.0 mi SW 3.5 mph - N/A   Clear
4:07 PM 89.6 °F 96.2 °F 71.6 °F 55% 29.91 in 10.0 mi SW 3.5 mph - N/A   Clear
4:27 PM 89.6 °F 96.2 °F 71.6 °F 55% 29.90 in 10.0 mi WSW 3.5 mph - N/A   Clear
4:47 PM 89.6 °F 96.2 °F 71.6 °F 55% 29.90 in 10.0 mi WSW 3.5 mph - N/A   Clear
5:07 PM 89.6 °F 96.2 °F 71.6 °F 55% 29.91 in 10.0 mi WSW 3.5 mph - N/A   Clear
5:27 PM 89.6 °F 96.2 °F 71.6 °F 55% 29.91 in 10.0 mi Calm Calm - N/A   Clear
5:47 PM 89.6 °F 96.2 °F 71.6 °F 55% 29.91 in 10.0 mi Calm Calm - N/A   Clear
6:07 PM 86.0 °F 91.8 °F 71.6 °F 62% 29.91 in 10.0 mi Calm Calm - N/A   Clear
6:27 PM 87.8 °F 95.6 °F 73.4 °F 62% 29.91 in 10.0 mi Calm Calm - N/A   Scattered Clouds
6:47 PM 87.8 °F 97.6 °F 75.2 °F 66% 29.90 in 10.0 mi Calm Calm - N/A   Clear
7:07 PM 82.4 °F 88.2 °F 73.4 °F 74% 29.92 in 10.0 mi Calm Calm - N/A   Clear
7:27 PM 80.6 °F 85.4 °F 73.4 °F 79% 29.92 in 10.0 mi Calm Calm - N/A   Scattered Clouds
7:47 PM 78.8 °F - 73.4 °F 83% 29.92 in 10.0 mi Calm Calm - N/A   Clear
8:07 PM 77.0 °F - 73.4 °F 89% 29.93 in 10.0 mi Calm Calm - N/A   Clear
8:26 PM 77.0 °F - 73.4 °F 89% 29.94 in 10.0 mi Calm Calm - N/A   Clear
8:47 PM 75.2 °F - 73.4 °F 94% 29.93 in 10.0 mi Calm Calm - N/A   Clear
9:07 PM 75.2 °F - 71.6 °F 89% 29.94 in 7.0 mi Calm Calm - N/A   Clear
9:26 PM 75.2 °F - 71.6 °F 89% 29.94 in 7.0 mi Calm Calm - N/A   Clear
9:47 PM 73.4 °F - 71.6 °F 94% 29.94 in 7.0 mi Calm Calm - N/A   Clear
10:07 PM 73.4 °F - 71.6 °F 94% 29.94 in 10.0 mi Calm Calm - N/A   Clear
10:27 PM 73.4 °F - 71.6 °F 94% 29.95 in 10.0 mi Calm Calm - N/A   Clear
10:47 PM 71.6 °F - 69.8 °F 94% 29.95 in 7.0 mi Calm Calm - N/A   Clear
11:07 PM 71.6 °F - 69.8 °F 94% 29.94 in 4.0 mi Calm Calm - N/A   Clear
11:27 PM 69.8 °F - 68.0 °F 94% 29.94 in 7.0 mi Calm Calm - N/A   Clear
11:47 PM 69.8 °F - 69.8 °F 100% 29.94 in 7.0 mi Calm Calm - N/A   Clear